Back to catalog

COSMOS 886 DEB

AliveLEO
NORAD 9823·DEBRIS·🇷🇺 Russia

Launched Dec 27, 1976 from Baikonur Cosmodrome

Loading…

Next Passes (next 24 hours)

TLE

FreshSource: Space-Track

Epoch: Sep 14, 2026, 09:49 UTC

1 09823U 76126AK  26257.40928485  .00000576  00000-0  28152-3 0  9995
2 09823  65.7983 310.4790 0910399 340.9676  15.9276 13.00549807326673

Track COSMOS 886 DEB in real time with AllMySat

Download on the App Store